Regional Weather Roundup
Issued by NWS State College, PA

Home | Current Version | Previous Version | Text Only | Print | Product List | Glossary On
Versions: 1 2 3 4 5 6 7 8 9 10 11 12 13 14 15 16 17 18 19 20 21 22 23 24 25 26 27 28 29 30 31 32 33 34 35 36 37 38 39 40 41 42 43 44 45 46 47 48 49 50
000
ASUS41 KCTP 010710
RWRCTP

REGIONAL WEATHER ROUNDUP
NATIONAL WEATHER SERVICE STATE COLLEGE PA
300 AM EDT FRI AUG 01 2014

Note: "fair" indicates few or no clouds below 12,000 feet with no
significant weather and/or obstructions to visibility.

* = STATION THAT DOES NOT REPORT PRECIPITATION /E.G. RAIN...SNOW...ETC/
    THUNDER OR FOG.

PAZ002>004-007>009-013>016-020>023-029>032-010800-
WESTERN PENNSYLVANIA

CITY           SKY/WX    TMP DP  RH WIND       PRES   REMARKS
ERIE           CLEAR     65  54  67 S9        30.07F
MEADVILLE      CLEAR     62  56  80 S5        30.12F
FRANKLIN*      CLEAR     57  54  88 S6        30.14F
NEW CASTLE     FOG       57  57 100 CALM      30.13S VSB 3/4
BEAVER COUNTY  NOT AVBL
BUTLER*        CLEAR     57  54  88 E3        30.15S
PITTSBURGH INT PTCLDY    61  59  93 CALM      30.13S
PITTSBURGH     CLEAR     62  59  90 S6        30.13S
INDIANA*       MOCLDY    61  59  94 CALM      30.18F
LATROBE        CLEAR     59  59 100 CALM      30.15S FOG
WASHINGTON CO* MOCLDY    55  55 100 CALM      30.14F VSB 1
$$

PAZ004>006-010>012-017>019-024>028-033>037-041-042-045-046-049>053-010800-
CENTRAL PENNSYLVANIA

CITY           SKY/WX    TMP DP  RH WIND       PRES   REMARKS
BRADFORD       CLEAR     51  48  89 CALM      30.16F
DUBOIS         FOG       58  56  93 E6        30.15S VSB 1/4
CLEARFIELD     FOG       56  56 100 N3        30.17S VSB 1/4
JOHNSTOWN      PTCLDY    62  55  77 SW6       30.19S
ALTOONA        PTCLDY    59  57  93 CALM      30.17S
STATE COLLEGE    N/A     59  59  99 CALM      30.16S FOG
WILLIAMSPORT   CLOUDY    63  61  93 N3        30.14R FOG
SELINSGROVE    MOCLDY    60  58  92 CALM      30.15S FOG
FT INDIANTOWN  PTCLDY    62  62 100 CALM      30.15S
CAPITAL CITY   PTCLDY    64  62  93 CALM      30.13F
HARRISBURG     PTCLDY    68  63  84 CALM      30.13S
YORK           MOCLDY    64  62  93 CALM      30.14S
$$

PAZ038>040-043-044-047-048-054-055-060>062-067>071-010800-
EASTERN PENNSYLVANIA

CITY           SKY/WX    TMP DP  RH WIND       PRES   REMARKS
SCRANTON       PTCLDY    66  58  75 CALM      30.15F
MOUNT POCONO   PTCLDY    61  57  87 CALM      30.20S
ALLENTOWN      CLEAR     65  61  87 CALM      30.15S
QUAKERTOWN*    MOSUNNY   63  63 100 CALM      30.16F
READING        PTCLDY    66  63  90 N3        30.13F
LANCASTER      MOCLDY    67  64  90 E3        30.15S
COATESVILLE    MOSUNNY   66  66 100 CALM      30.17S FOG
POTTSTOWN      PTCLDY    65  63  93 CALM      30.17S
BLUE BELL      PTCLDY    70  66  88 CALM      30.15F
DOYLESTOWN     CLOUDY    67  65  93 S6        30.15S
WILLOW GROVE   NOT AVBL
NORTH PHILA    PTCLDY    72  65  78 CALM      30.17S
PHILADELPHIA   MOCLDY    72  67  84 S5        30.16F
$$


USA.gov is the U.S. government's official web portal to all federal, state and local government web resources and services.